DW9924 Weather Reports


Display with metric or nautical units.
time (UTC)temp
F
wind
direction
speed
MPH
gust
MPH
rain 1hr
in
rain 24hr
in
rain mn
in
humidity
%
barometer
mb
20260904034907 75 43 2.0 3.0 0.00 0.00 0.00 78 1018.7
20260904034406 75 43 2.0 3.0 0.00 0.00 0.00 77 1018.7
20260904033906 75 35 2.0 3.0 0.00 0.00 0.00 74 1018.7
20260904033407 74 74 1.0 3.0 0.00 0.00 0.00 71 1018.8
20260904031906 74 53 3.0 3.0 0.00 0.00 0.00 71 1018.7
20260904031406 74 66 1.0 3.0 0.00 0.00 0.00 73 1018.7
20260904030406 74 28 2.0 3.0 0.00 0.00 0.00 76 1018.7
20260904024906 74 34 2.0 3.0 0.00 0.00 0.00 72 1018.8
20260904024406 75 23 2.0 3.0 0.00 0.00 0.00 73 1018.8
20260904023906 75 36 2.0 3.0 0.00 0.00 0.00 74 1018.7
20260904023406 75 38 1.0 2.0 0.00 0.00 0.00 73 1018.7
20260904021906 75 39 1.0 2.0 0.00 0.00 0.00 71 1018.7
20260904021407 75 32 2.0 2.0 0.00 0.00 0.00 71 1018.7
20260904020906 75 43 1.0 3.0 0.00 0.00 0.00 70 1018.7
20260904020406 75 47 2.0 3.0 0.00 0.00 0.00 70 1018.7
20260904014905 75 49 1.0 2.0 0.00 0.00 0.00 71 1018.7
20260904014406 75 49 1.0 3.0 0.00 0.00 0.00 71 1018.7
20260904013906 75 51 2.0 3.0 0.00 0.00 0.00 71 1018.7
20260904013406 75 41 1.0 3.0 0.00 0.00 0.00 71 1018.6
20260904011906 75 34 1.0 3.0 0.00 0.00 0.00 71 1018.8
20260904011406 75 37 1.0 2.0 0.00 0.00 0.00 70 1018.8
20260904010905 75 30 1.0 2.0 0.00 0.00 0.00 70 1018.8
20260904010406 75 44 1.0 3.0 0.00 0.00 0.00 69 1018.8
20260904004906 75 45 1.0 3.0 0.00 0.00 0.00 68 1018.7
20260904003406 75 29 2.0 3.0 0.00 0.00 0.00 69 1018.7
20260904001906 75 36 1.0 3.0 0.00 0.00 0.00 69 1018.8
20260904000905 75 31 2.0 3.0 0.00 0.00 0.00 69 1018.9
20260903234407 75 35 2.0 2.0 0.00 0.00 0.00 72 1018.9
20260903233908 76 35 2.0 3.0 0.00 0.00 0.00 72 1018.9
20260903233406 75 39 1.0 3.0 0.00 0.00 0.00 71 1018.9
20260903231906 75 29 1.0 2.0 0.00 0.00 0.00 69 1018.8
20260903231406 76 30 1.0 2.0 0.00 0.00 0.00 69 1018.8
20260903224905 76 26 2.0 3.0 0.00 0.00 0.00 69 1019.0
20260903224422 76 37 2.0 3.0 0.00 0.00 0.00 69 1018.9
20260903223407 76 25 2.0 3.0 0.00 0.00 0.00 70 1018.9
20260903221905 76 45 1.0 2.0 0.00 0.00 0.00 70 1018.8
20260903220906 76 51 2.0 3.0 0.00 0.00 0.00 70 1018.9
20260903220405 76 56 1.0 3.0 0.00 0.00 0.00 69 1019.0
20260903213909 75 27 1.0 3.0 0.00 0.00 0.00 74 1018.9
20260903211908 76 38 2.0 2.0 0.00 0.00 0.00 80 1019.0
20260903211406 76 31 2.0 3.0 0.00 0.00 0.00 81 1019.0
20260903210405 76 25 2.0 3.0 0.00 0.00 0.00 82 1019.0
20260903204405 77 24 1.0 2.0 0.00 0.00 0.00 80 1019.0
20260903203908 77 39 1.0 2.0 0.00 0.00 0.00 79 1018.9
20260903203406 77 38 1.0 3.0 0.00 0.00 0.00 78 1018.9
20260903201906 76 29 1.0 3.0 0.00 0.00 0.00 76 1018.9
20260903201405 76 24 2.0 3.0 0.00 0.00 0.00 76 1018.9
20260903200906 76 27 2.0 3.0 0.00 0.00 0.00 77 1018.9
20260903193905 77 28 2.0 3.0 0.00 0.00 0.00 77 1018.8
20260903193405 77 36 1.0 3.0 0.00 0.00 0.00 77 1018.8
20260903191906 77 37 1.0 2.0 0.00 0.00 0.00 77 1018.8
20260903190905 77 36 1.0 2.0 0.00 0.00 0.00 77 1018.8
20260903190406 77 47 1.0 3.0 0.00 0.00 0.00 77 1018.8
20260903184905 78 11 0.0 2.0 0.00 0.00 0.00 78 1018.6
20260903184405 78 28 1.0 2.0 0.00 0.00 0.00 78 1018.7
20260903183905 78 28 1.0 2.0 0.00 0.00 0.00 78 1018.6
20260903183405 78 37 2.0 3.0 0.00 0.00 0.00 78 1018.5
20260903181905 79 44 1.0 2.0 0.00 0.00 0.00 78 1018.5
20260903181405 79 36 1.0 3.0 0.00 0.00 0.00 78 1018.4
20260903180905 80 0 0.0 2.0 0.00 0.00 0.00 78 1018.4
20260903180405 80 0 0.0 2.0 0.00 0.00 0.00 78 1018.4
20260903174905 81 14 0.0 1.0 0.00 0.00 0.00 78 1018.4
20260903174406 81 53 0.0 1.0 0.00 0.00 0.00 77 1018.3
20260903173905 81 53 0.0 1.0 0.00 0.00 0.00 77 1018.3
20260903173405 81 301 0.0 3.0 0.00 0.00 0.00 76 1018.3
20260903171906 81 291 1.0 2.0 0.00 0.00 0.00 78 1018.4
20260903171407 81 277 1.0 2.0 0.00 0.00 0.00 78 1018.4
20260903170907 81 294 0.0 1.0 0.00 0.00 0.00 78 1018.4
20260903170406 81 275 0.0 3.0 0.00 0.00 0.00 78 1018.4
20260903164907 82 203 1.0 2.0 0.00 0.00 0.00 77 1018.3
20260903164406 82 229 1.0 3.0 0.00 0.00 0.00 77 1018.3
20260903163905 82 224 1.0 3.0 0.00 0.00 0.00 77 1018.3
20260903163405 82 299 1.0 3.0 0.00 0.00 0.00 77 1018.4
20260903161905 82 298 0.0 3.0 0.00 0.00 0.00 77 1018.5
20260903161405 82 201 1.0 3.0 0.00 0.00 0.00 76 1018.5
20260903160904 82 239 2.0 3.0 0.00 0.00 0.00 75 1018.4
20260903160406 82 244 1.0 3.0 0.00 0.00 0.00 75 1018.4
20260903154905 83 254 1.0 3.0 0.00 0.00 0.00 73 1018.4
20260903154406 83 241 1.0 3.0 0.00 0.00 0.00 73 1018.4
20260903153905 84 220 1.0 3.0 0.00 0.00 0.00 72 1018.5
20260903153405 84 237 1.0 3.0 0.00 0.00 0.00 74 1018.4
20260903151905 82 192 1.0 3.0 0.00 0.00 0.00 74 1018.5
20260903151406 83 224 2.0 3.0 0.00 0.00 0.00 73 1018.6
20260903150905 83 201 1.0 3.0 0.00 0.00 0.00 74 1018.5
20260903150405 83 252 1.0 3.0 0.00 0.00 0.00 73 1018.4
20260903144906 83 246 2.0 3.0 0.00 0.00 0.00 74 1018.6
20260903144405 83 264 2.0 3.0 0.00 0.00 0.00 73 1018.7
20260903143905 83 250 2.0 3.0 0.00 0.00 0.00 73 1018.9
20260903141905 84 235 2.0 3.0 0.00 0.00 0.00 72 1018.9
20260903141405 84 225 2.0 3.0 0.00 0.00 0.00 71 1018.9
20260903140906 84 174 1.0 3.0 0.00 0.00 0.00 72 1018.9
20260903140404 85 242 2.0 5.0 0.00 0.00 0.00 72 1019.0
20260903134905 84 191 2.0 5.0 0.00 0.00 0.00 73 1019.0
20260903134405 84 223 2.0 5.0 0.00 0.00 0.00 73 1019.1
20260903133904 83 200 2.0 3.0 0.00 0.00 0.00 73 1019.2
20260903133404 83 195 1.0 5.0 0.00 0.00 0.00 74 1019.1
20260903131405 84 229 2.0 3.0 0.00 0.00 0.00 71 1019.1
20260903130904 83 242 2.0 5.0 0.00 0.00 0.00 74 1019.1
20260903130404 84 218 2.0 5.0 0.00 0.00 0.00 72 1019.0
20260903124904 84 231 1.0 3.0 0.00 0.00 0.00 74 1019.0
20260903123905 83 177 1.0 5.0 0.00 0.00 0.00 73 1019.0
20260903123405 83 250 2.0 6.0 0.00 0.00 0.00 73 1019.0
20260903121904 84 160 1.0 2.0 0.00 0.00 0.00 73 1019.0
20260903121405 84 188 1.0 3.0 0.00 0.00 0.00 72 1019.0
20260903120904 84 151 1.0 3.0 0.00 0.00 0.00 74 1019.0
20260903120404 83 205 2.0 6.0 0.00 0.00 0.00 75 1019.2
20260903114404 84 142 1.0 3.0 0.00 0.00 0.00 74 1019.2
20260903113405 83 169 1.0 3.0 0.00 0.00 0.00 74 1019.2
20260903111404 83 174 1.0 3.0 0.00 0.00 0.00 72 1019.3
20260903110406 83 261 1.0 3.0 0.00 0.00 0.00 72 1019.3
20260903104904 82 215 0.0 5.0 0.00 0.00 0.00 75 1019.5
20260903104404 83 179 2.0 3.0 0.00 0.00 0.00 72 1019.6
20260903103905 84 239 1.0 3.0 0.00 0.00 0.00 72 1019.6
20260903103404 83 172 2.0 3.0 0.00 0.00 0.00 73 1019.6
20260903101907 82 186 1.0 3.0 0.00 0.00 0.00 74 1019.6
20260903101407 82 183 1.0 3.0 0.00 0.00 0.00 73 1019.5
20260903100906 82 200 1.0 3.0 0.00 0.00 0.00 75 1019.6
20260903100404 82 182 1.0 5.0 0.00 0.00 0.00 75 1019.7
20260903094904 81 173 1.0 3.0 0.00 0.00 0.00 74 1019.8
20260903094405 82 219 1.0 3.0 0.00 0.00 0.00 74 1019.8
20260903093904 81 172 1.0 3.0 0.00 0.00 0.00 74 1019.8
20260903093407 82 230 1.0 3.0 0.00 0.00 0.00 74 1019.9
20260903091908 81 165 1.0 3.0 0.00 0.00 0.00 75 1019.9
20260903091407 81 249 2.0 3.0 0.00 0.00 0.00 74 1019.9
20260903090907 81 242 1.0 3.0 0.00 0.00 0.00 74 1019.9
20260903090408 81 228 1.0 3.0 0.00 0.00 0.00 74 1019.9
20260903084907 80 244 2.0 3.0 0.00 0.00 0.00 76 1019.8
20260903084407 80 174 1.0 3.0 0.00 0.00 0.00 77 1019.7
20260903081907 80 231 1.0 3.0 0.00 0.00 0.00 76 1019.5
20260903080907 80 224 0.0 3.0 0.00 0.00 0.00 75 1019.5
20260903074907 80 220 1.0 2.0 0.00 0.00 0.00 78 1019.4
20260903074406 80 250 0.0 3.0 0.00 0.00 0.00 81 1019.5
20260903073907 80 303 0.0 2.0 0.00 0.00 0.00 83 1019.4
20260903073407 79 292 0.0 2.0 0.00 0.00 0.00 84 1019.3
20260903071407 77 301 0.0 2.0 0.00 0.00 0.00 89 1019.4
20260903064907 75 331 0.0 1.0 0.00 0.00 0.00 91 1019.3
20260903064407 75 331 0.0 0.0 0.00 0.00 0.00 91 1019.3
20260903063906 74 331 0.0 0.0 0.00 0.00 0.00 90 1019.2
20260903063406 74 331 0.0 0.0 0.00 0.00 0.00 90 1019.2
20260903061906 73 331 0.0 0.0 0.00 0.00 0.00 90 1019.2
20260903061406 73 331 0.0 0.0 0.00 0.00 0.00 90 1019.1
20260903060907 73 331 1.0 1.0 0.00 0.00 0.00 90 1019.1
20260903060407 73 311 1.0 3.0 0.00 0.00 0.00 90 1019.0
20260903054906 73 5 0.0 2.0 0.00 0.00 0.00 90 1018.9
20260903053906 73 10 1.0 2.0 0.00 0.00 0.00 90 1018.8
20260903051907 73 30 1.0 2.0 0.00 0.00 0.00 90 1018.7
20260903051406 73 30 1.0 2.0 0.00 0.00 0.00 90 1018.7
20260903050906 73 27 1.0 2.0 0.00 0.00 0.00 90 1018.6
20260903050406 73 35 1.0 3.0 0.00 0.00 0.00 90 1018.7
20260903044907 73 27 2.0 3.0 0.00 0.00 0.00 90 1018.5
20260903044406 73 35 2.0 3.0 0.00 0.00 0.00 90 1018.5
20260903043407 73 16 1.0 3.0 0.00 0.00 0.00 90 1018.4
20260903041907 72 29 2.0 3.0 0.00 0.00 0.00 89 1018.4
20260903041407 72 30 2.0 3.0 0.00 0.00 0.00 89 1018.4
20260903040906 72 29 2.0 3.0 0.00 0.00 0.00 89 1018.5
20260903040406 72 32 1.0 3.0 0.00 0.00 0.00 89 1018.4